Regional Weather Roundup
Issued by NWS

Home | Current Version | Previous Version | Text Only | Print | Product List | Glossary On
Versions: 1 2 3 4 5 6 7 8 9 10 11 12 13 14 15 16 17 18 19 20 21 22 23 24 25 26 27
000
ASUS42 KTBW 200717
RWRFL
FLORIDA REGIONAL WEATHER ROUNDUP
NATIONAL WEATHER SERVICE TAMPA BAY RUSKIN FL
300 AM EDT SUN AUG 20 2017

NOTE: "FAIR" INDICATES FEW OR NO CLOUDS BELOW 12,000 FEET WITH NO
SIGNIFICANT WEATHER AND/OR OBSTRUCTIONS TO VISIBILITY.

FLZ001>010-012>015-112-114-115-200800-
PANHANDLE FLORIDA

CITY           SKY/WX    TMP DP  RH WIND       PRES   REMARKS
PENSACOLA      PTCLDY    78  72  81 N5        29.98F
PENSACOLA NAS  CLEAR     75  72  90 CALM      29.97F
MILTON NAS     CLEAR     73  72  96 CALM      29.98
CRESTVIEW      CLEAR     74  72  93 CALM      30.00F
DUKE FIELD     FAIR      75  73  95 CALM      29.98F
VALPARAISO     PTCLDY    79  75  86 NW2       29.97F
MARY ESTHER    CLEAR     78  76  96 N7        29.97S
PANAMA CITY    FAIR      77  75  93 CALM      29.98R
TYNDALL AFB    CLEAR     78  76  94 CALM      29.98F
APALACHICOLA   CLEAR     76  76 100 CALM      29.97F

STATION/POSITION SKY/WX   TEMP    WIND        PRES    WAVE   SWELL
                          AIR SEA DIR/SP/G            HT/PER HT/PER
                          (F)     (DEG/KT/KT) (MB)    (FT/S) (FT/S)
30.1N   87.6W              83 87   10/  6/  6 1015.0F   1
29.2N   88.2W              85 88   20/  6/  8 1014.9
28.8N   86.0W              84 86  320/  4/  4 1014.9F   1/ 5   2/ 5
PANAMA CITY BEAC                   10/  4/  5 1015.7F
TOWER C                    84                 1015.7F
28.5N   84.5W              83 86   CALM  /  2 1015.1F   1/ 4   2/ 5

$$
FLZ011-016>038-118-127-128-134-139-239-200800-
NORTH FLORIDA

CITY           SKY/WX    TMP DP  RH WIND       PRES   REMARKS
MARIANNA       CLEAR     78  76  93 S3        29.98F
TALLAHASSEE    CLEAR     76  74  93 CALM      29.98F
PERRY          CLEAR     76  75  96 CALM      29.99F
LIVE OAK       CLEAR     75  75 100 CALM      30.00F FOG
CROSS CITY     CLEAR     75  74  97 E3        30.03F
LAKE CITY      FAIR      73  73 100 CALM      30.00F
GAINESVILLE    CLEAR     74  72  93 CALM      30.02S
WILLISTON      CLEAR     75  75 100 CALM      29.99F
PALATKA        FAIR      75  75 100 CALM      30.00S
MAYPORT NAS    CLEAR     79  75  87 S7        29.99F
JACKSONVILLE   CLEAR     75  75 100 CALM      29.99S
JAX NAS        CLEAR     82  76  81 S8        29.99F
JAX CECIL      CLEAR     73  73 100 CALM      29.99F
FERNANDINA BEA FAIR      79  73  83 CALM      29.98S
ST AUGUSTINE   CLEAR     79  75  87 S6        30.01F
PALM COAST     MOCLDY    77  -1   4 CALM      30.00F

STATION/POSITION SKY/WX   TEMP    WIND        PRES    WAVE   SWELL
                          AIR SEA DIR/SP/G            HT/PER HT/PER
                          (F)     (DEG/KT/KT) (MB)    (FT/S) (FT/S)
SHELL POINT      NOT AVBL
KEATON BEACH               78      10/  4/  5 1014.9F
CEDAR KEY                  81      80/  7/  8 1015.6F
FERNANDINA                    85   CALM  /  2 1016.5F
30.7N   81.3W                 84                N/A     2/ 9
MAYPORT                       86  200/  3/  4 1016.0F
31.4N   80.9W              84 85  180/ 12/ 14 1015.2F   3/ 8   2/ 8
ST AUGUSTINE               81 83  200/  6/  7 1015.9F

$$
FLZ040-043>046-052-053-057-058-063-144-200800-
INTERIOR CENTRAL FLORIDA

CITY           SKY/WX    TMP DP  RH WIND       PRES   REMARKS
OCALA          CLEAR     75  75 100 CALM      30.00F FOG
THE VILLAGES     N/A     77  77 100 CALM      29.90F
LEESBURG       CLEAR     82  78  88 S7        30.00F
SANFORD        PTCLDY    80  76  87 CALM      30.00F
ORLANDO EXEC   PTCLDY    81  78  91 CALM      30.00F
ORLANDO INTL   MOCLDY    80  77  90 CALM      30.00F
KISSIMMEE      PTCLDY    80  77  90 CALM      30.01S
WINTER HAVEN   PTCLDY    81  75  82 CALM      30.00F
LAKELAND         N/A     79  75  89 CALM      30.00S
BARTOW         FAIR      75 N/A N/A CALM      30.00S
SEBRING        FAIR      79  75  88 E3        29.98F
OKEECHOBEE     CLOUDY    77  73  88 CALM      29.97F

$$
FLZ041-047-054-059-064-141-147-200800-
EAST CENTRAL FLORIDA

CITY           SKY/WX    TMP DP  RH WIND       PRES   REMARKS
DAYTONA BEACH  PTCLDY    79  77  94 S3        30.00F
DELAND         PTCLDY    81  75  83 S3        30.00S
JFK SPACE CTR  CLOUDY    76  76 100 CALM      29.98S
CAPE CANAVERAL CLOUDY    79  76  92 SE7       29.98S
PATRICK AFB    CLOUDY    83  78  86 S7        29.98S
MELBOURNE      CLOUDY    82  77  84 S3        29.98F
VERO BEACH     MOCLDY    80  77  90 CALM      29.98F
FT PIERCE      CLOUDY    79  78  97 CALM      29.97F
STUART         CLOUDY    82  79  89 CALM      29.98F

STATION/POSITION SKY/WX   TEMP    WIND        PRES    WAVE   SWELL
                          AIR SEA DIR/SP/G            HT/PER HT/PER
                          (F)     (DEG/KT/KT) (MB)    (FT/S) (FT/S)
28.5N   80.2W              85 85  140/  8/ 10 1016.8R   3/ 9   2/ 9
28.9N   78.5W              82 85  160/ 12/ 14 1015.6
TRIDENT PIER                  86  140/  4/  6 1017.1S
28.4N   80.5W                 85                N/A     2/ 9
27.5N   80.2W                 83                N/A     2/ 9

$$
FLZ050-056-061-142-242-148-248-149-249-151-251-155-255-
160-260-200800-
WEST CENTRAL FLORIDA

CITY           SKY/WX    TMP DP  RH WIND       PRES   REMARKS
CRYSTAL RIVER  FAIR      75  73  94 CALM      29.99F
INVERNESS      FAIR      77  77 100 CALM      30.00F
BROOKSVILLE    PTCLDY    77  75  93 NE3       30.00F
CLEARWATER AIR FAIR      81  75  83 CALM      29.98S
ST PETE CLEARW PTCLDY    84  75  74 E7        29.97F
TAMPA INTL     PTCLDY    82  74  76 NE5       29.98F
TAMPA EXEC     CLEAR     77  73  88 CALM      29.99F
PLANT CITY     PTCLDY    81  77  89 CALM      30.01S
MACDILL AFB    CLEAR     79  79 100 E7        29.98F
PETER O KNIGHT MOCLDY    82  79  89 SE5       29.98F
ST PETERSBURG  PTCLDY    85  77  77 E8        29.96F HX  95
SARASOTA       PTCLDY    80  74  81 NE5       29.96F
VENICE         FAIR      81  77  89 E5        29.98R

STATION/POSITION SKY/WX   TEMP    WIND        PRES    WAVE   SWELL
                          AIR SEA DIR/SP/G            HT/PER HT/PER
                          (F)     (DEG/KT/KT) (MB)    (FT/S) (FT/S)
CLEARWATER BEACH              89   60/  5/  6 1015.3F
MIDDLE TAMPA BAY                  100/  9/ 10 1015.2F
VENICE                     82 89  120/  5/  6 1015.0R

$$
FLZ066-069-070-075>078-162-262-165-265-200800-
SOUTHWEST FLORIDA AND KEYS

CITY           SKY/WX    TMP DP  RH WIND       PRES   REMARKS
PUNTA GORDA    PTCLDY    78  75  90 CALM      29.98F
FT MYERS       MOCLDY    80  78  94 CALM      29.95F
SOUTHWEST INTL MOCLDY    79  76  90 CALM      29.95F
NAPLES         PTCLDY    81  77  88 E6        29.94F
IMMOKALEE      FAIR      77  77 100 CALM      29.96F
MARATHON       CLOUDY    85  77  77 E8        29.94S HX  95
KEY WEST NAS   PTCLDY    82  79  90 SE9       29.94F
KEY WEST INTL  CLEAR     83  78  85 SE9       29.94F

STATION/POSITION SKY/WX   TEMP    WIND        PRES    WAVE   SWELL
                          AIR SEA DIR/SP/G            HT/PER HT/PER
                          (F)     (DEG/KT/KT) (MB)    (FT/S) (FT/S)
NAPLES                        90  120/  4/  7 1014.1F
DRY TORTUGAS               85     100/ 15/ 16 1013.8F
SAND KEY                   83     120/  9/ 12 1014.4F

$$
FLZ067-068-071>074-168-172>174-200800-
SOUTHEAST FLORIDA

CITY           SKY/WX    TMP DP  RH WIND       PRES   REMARKS
W PALM BEACH   MOCLDY    82  74  76 CALM      29.97S
FT LAUDER-EXEC LGT RAIN  82  75  79 CALM      29.95F
FT LAUDERDALE  CLOUDY    82  74  76 S6        29.95F
POMPANO BEACH  CLOUDY    84  74  71 E3        29.96S
PEMBROKE PINES PTCLDY    81  75  82 SW3       29.98R
OPA LOCKA      CLOUDY    82  75  79 CALM      29.97R
MIAMI          CLOUDY    82  73  74 CALM      29.96S
WEST KENDALL   CLOUDY    81  71  71 E10       29.96S
HOMESTEAD      CLOUDY    80  74  81 CALM      29.95R

STATION/POSITION SKY/WX   TEMP    WIND        PRES    WAVE   SWELL
                          AIR SEA DIR/SP/G            HT/PER HT/PER
                          (F)     (DEG/KT/KT) (MB)    (FT/S) (FT/S)
PORT EVERGLADES            83     100/  5/  9 1014.2F
VIRGINIA KEY                  90  360/  2/  3 1014.0R
LAKE WORTH                        180/  9/ 11   N/A
FOWEY ROCKS                82 87   40/ 10/ 10 1015.0R
SETTLEMENT POINT           83     120/  5/  6 1015.4S

$$





USA.gov is the U.S. government's official web portal to all federal, state and local government web resources and services.